Location: Dumbel�n
(54.4531°N, 22.6653°E)
Time: 09:57:25
(UTC+00:00)

Daily predictions for brighter satellites

Satellite Brightness Start Highest point End
(mag) Time Altitude Azimuth Time Altitude Azimuth Time Altitude Azimuth
CENTAUR R/B 3.5 14:48:20 10° WNW 14:54:56 43° N 15:02:31 10° ENE
Radarsat Rocket 4.3 14:50:50 10° SSE 14:57:49 86° ENE 15:04:03 10° NNW
Cosmos 2278 Rocket 4.1 15:00:08 10° NW 15:03:21 15° N 15:06:35 10° NNE
Meteor 2-10 Rocket 3.6 15:00:42 10° SSW 15:05:44 82° WNW 15:10:57 10° NNE
Envisat 3.7 15:04:22 10° ESE 15:08:47 31° ENE 15:13:13 10° N
YAOGAN 1 4.1 15:07:19 10° E 15:09:58 16° NE 15:12:37 10° NNE
SJ-7 4.5 15:09:15 10° SSE 15:13:30 81° ENE 15:17:46 10° NNW
Cosmos 1356 Rocket 4.1 15:11:48 10° SSE 15:15:39 36° E 15:19:36 10° NNE
Meteor 1-27 4.3 15:11:50 10° S 15:17:31 73° E 15:23:19 10° NNE
ATLAS 3B R/B 3.4 15:11:55 10° WNW 15:18:03 37° N 15:24:05 11° ENE
Cosmos 724 4.3 15:12:11 10° NW 15:18:07 86° NE 15:23:55 10° SE
USA 238 DEB 4.2 15:12:32 10° WNW 15:19:14 46° NNE 15:26:12 10° E
Cosmos 1842 Rocket 3.9 15:14:50 10° SSW 15:19:19 74° WNW 15:23:48 10° N
USA 238 4.2 15:12:38 10° WNW 15:19:20 46° NNE 15:26:18 10° E
Cosmos 1689 Rocket 2.2 15:17:28 10° NNE 15:20:32 81° WNW 15:23:35 10° SSW
PSLV R/B 4.4 15:16:33 10° NNE 15:20:39 45° E 15:24:42 10° S
H-2A R/B 4.2 15:18:53 10° N 15:22:10 22° WNW 15:25:23 10° WSW
NOSS 3-2 (A) 4.3 15:16:07 10° WNW 15:22:39 46° NNE 15:30:06 10° E
Cosmos 1371 Rocket 4.1 15:22:14 10° NNW 15:27:22 53° NE 15:32:26 10° SE
SL-16 R/B 4.4 15:22:48 10° N 15:27:40 25° NW 15:32:30 10° WSW
CZ-4 R/B 2.5 15:25:59 10° ESE 15:29:15 24° ENE 15:32:28 10° N
CSL-04 Rocket 4.4 15:25:31 10° ESE 15:29:59 28° ENE 15:34:28 10° N
CORIOLIS 4.2 15:24:48 10° SSE 15:30:10 66° ENE 15:35:35 10° NNW
Cosmos 2369 Rocket 3.9 15:26:29 10° W 15:30:55 23° NNW 15:35:22 10° NNE
Cosmos 1805 Rocket 3.6 15:27:12 10° NNW 15:31:36 83° W 15:35:59 10° S
Lacrosse 4 Rocket 1.9 15:32:00 10° S 15:35:47 39° ESE 15:38:48 15° NE
Cosmos 1455 4.4 15:33:41 10° SW 15:36:49 25° WNW 15:39:59 10° N
Cosmos 1862 3.3 15:34:48 10° N 15:38:45 59° ENE 15:42:42 10° SSE
Cosmos 1633 2.4 15:36:13 10° N 15:39:53 74° ENE 15:43:31 10° SSE
Cosmos 2034 Rocket 4.1 15:33:56 10° N 15:40:12 55° ENE 15:46:26 10° SSE
Cosmos 1238 Rocket 4.3 15:37:54 10° NNW 15:41:48 38° W 15:45:06 10° SSW
Cosmos 1943 Rocket 4.1 15:38:48 10° WNW 15:42:59 20° NNW 15:47:12 10° NNE
Cosmos 1980 Rocket 3.2 15:39:14 10° SSE 15:43:53 27° ESE 15:47:20 15° ENE
NOAA 12 4.1 15:38:55 10° SSE 15:44:11 64° ENE 15:49:28 10° NNW
Cosmos 2297 Rocket 3.9 15:40:27 10° NW 15:45:38 38° WSW 15:50:47 10° S
Cosmos 2227 Rocket 3.8 15:41:12 10° NW 15:46:28 40° WSW 15:51:41 10° S
Meteor 2-20 4.4 15:44:57 10° S 15:51:05 85° E 15:57:18 10° NNE
APEX 4.4 15:49:10 10° SSE 15:51:02 16° ESE 15:51:02 16° ESE
Cosmos 1680 Rocket 3.9 15:46:40 10° S 15:51:32 41° ESE 15:55:51 13° NE
Ariane Rocket 4.1 15:49:29 16° E 15:51:59 22° NE 15:55:52 10° N
Cosmos 773 Rocket 4.3 15:48:46 10° SW 15:53:56 67° WNW 15:59:12 10° NNE
CZ-4B R/B 3.7 15:51:57 10° N 15:54:43 24° WNW 15:57:31 10° WSW
Okean-O 2.5 15:51:09 10° SSE 15:55:35 76° ENE 16:00:03 10° NNW
Cosmos 1634 Rocket 4.5 15:50:44 10° N 15:56:25 36° ENE 16:02:03 10° SE
Meteor 2-2 Rocket 4.4 15:51:14 10° SSW 15:57:02 80° WNW 16:02:46 10° NNE
YAOGAN 3 4.5 15:52:53 10° SSE 15:57:14 75° ENE 16:01:37 10° NNW
Cosmos 1633 Rocket 3.0 15:52:52 10° N 15:57:19 83° ENE 16:01:45 10° SSE
CZ-2D R/B 4.5 15:57:48 22° ENE 15:57:51 22° ENE 16:00:52 10° N
Cosmos 44 3.9 15:54:09 10° NW 15:58:10 32° NNE 16:00:06 22° ENE
Cosmos 2263 Rocket 2.3 15:55:30 10° NNW 16:00:59 54° NE 16:06:26 10° SE
Genesis I 4.1 15:57:25 10° WSW 16:01:16 43° NNW 16:04:02 17° NNE
Sich 1 3.7 15:57:13 10° NNW 16:01:31 60° W 16:05:50 10° S
Cosmos 1151 Rocket 3.5 15:59:14 10° SSE 16:03:18 39° E 16:07:16 11° NNE
USA 215 3.3 16:01:35 18° E 16:06:37 74° N 16:13:08 10° WNW
NOSS 3-2 (C) 4.2 16:02:34 10° NW 16:09:15 49° NNE 16:14:17 21° E
Cosmos 1666 Rocket 4.1 16:09:02 10° NNW 16:13:22 61° W 16:17:38 10° S
H-2A R/B 3.7 16:10:18 10° S 16:14:01 51° W 16:17:44 10° NNW
Tsikada Rocket 4.3 16:08:18 10° SSE 16:14:21 46° E 16:20:27 10° NNE
Cosmos 1933 Rocket 3.6 16:10:07 10° N 16:14:24 55° ENE 16:18:41 10° SSE
Okean O Rocket 4.5 16:11:45 10° SW 16:14:59 20° W 16:18:14 10° NW
Cosmos 2228 Rocket 4.1 16:11:56 10° SE 16:15:06 26° E 16:15:06 26° E
Cosmos 1328 Rocket 3.6 16:11:37 10° S 16:15:55 54° E 16:20:10 10° NNE
Cosmos 2369 3.7 16:11:18 10° SSW 16:16:57 73° ESE 16:21:26 17° NE
COSMO-SKYMED 1 3.0 16:15:11 23° NE 16:17:24 38° E 16:21:29 10° SSE
Cosmos 1624 Rocket 4.1 16:12:12 10° NNW 16:17:35 82° WSW 16:22:55 10° SSE
Cosmos 1869 4.2 16:14:16 10° SSW 16:18:05 48° WNW 16:21:55 10° N
Cosmos 923 Rocket 3.9 16:12:59 10° SSW 16:18:12 78° ESE 16:22:36 15° NNE
NOSS 2-3 (E) 4.0 16:13:50 10° SSW 16:18:13 52° SE 16:20:45 28° ENE
Cosmos 2056 Rocket 3.5 16:13:42 10° NNW 16:18:52 82° WSW 16:24:03 10° SSE
Cosmos 2221 4.5 16:16:17 10° SW 16:20:06 29° WNW 16:23:58 10° N
Cosmos 2344 4.0 16:13:01 10° WSW 16:20:33 63° NNW 16:27:32 18° NE
Cosmos 1697 Rocket 2.6 16:15:15 10° SSW 16:20:53 73° ESE 16:25:05 18° NE
Cosmos 1515 Rocket 3.9 16:17:23 10° SSE 16:21:30 41° E 16:23:19 27° NE
USA 229 DEB 3.7 16:15:00 10° SW 16:21:41 82° NW 16:26:44 21° NE
USA 229 3.7 16:15:07 10° SW 16:21:47 82° NW 16:26:49 21° NE
NOSS 3-1 (C) 3.5 16:18:32 10° SW 16:24:21 83° NW 16:28:57 22° NE
ERBS 2.1 16:21:19 10° WSW 16:24:39 80° SSE 16:25:19 54° E
Cosmos 1464 Rocket 4.5 16:19:23 10° NNW 16:25:29 63° W 16:31:30 10° S
YAOGAN 6 2.3 16:22:10 10° SSE 16:25:39 77° ENE 16:29:09 10° N
SeaSat 1 2.6 16:21:28 10° SSE 16:26:24 76° WSW 16:31:23 10° NW
BREEZE-M DEB (TANK) 3.3 16:19:16 10° W 16:26:33 46° S 16:27:59 28° SE
NOSS 3-1 (A) 3.4 16:21:04 10° SW 16:26:48 79° SE 16:31:00 24° NE
NOSS 2-3 (D) 3.9 16:23:30 10° SSW 16:27:55 57° SE 16:30:05 32° ENE
Cosmos 1656 3.9 16:24:37 10° SW 16:30:07 67° NW 16:34:32 16° NNE
H-2A R/B 3.5 16:33:42 20° NE 16:33:42 20° NE 16:36:24 10° N
FengYun 1-2 T 4.2 16:27:32 10° SSE 16:33:03 87° WSW 16:38:35 10° NNW
Cosmos 2360 4.2 16:28:56 10° SSW 16:34:34 64° ESE 16:37:46 26° NE
Cosmos 2278 3.6 16:28:56 10° SSW 16:34:36 74° ESE 16:38:14 23° NE
SKYMED 3 4.5 16:39:34 30° NNE 16:41:38 63° ESE 16:45:56 10° S
Cosmos 1844 Rocket 3.3 16:37:38 10° NNW 16:42:43 34° NE 16:43:16 33° NE
Cosmos 1470 Rocket 4.0 16:40:20 10° NNW 16:44:48 63° W 16:49:13 10° S
YAOGAN 1 2.4 16:41:08 10° SSE 16:45:28 87° ENE 16:49:51 10° NNW
CENTAUR R/B 3.2 16:39:48 10° NW 16:47:06 55° NNE 16:50:42 34° E
Cosmos 44 Rocket 4.2 16:43:15 10° NW 16:47:28 30° NNE 16:47:42 30° NNE
Envisat 3.8 16:42:39 10° S 16:47:37 54° W 16:52:37 10° NNW
Cosmos 2278 Rocket 3.7 16:45:37 10° NNW 16:49:45 20° NNE 16:50:01 20° NNE
Cosmos 2346 Rocket 4.4 16:46:52 10° S 16:53:05 89° ESE 16:59:17 10° NNE
COBE Rocket 4.4 16:49:40 10° N 16:54:23 58° WNW 16:58:58 10° SSW
CSL-04 Debris 4.3 16:53:34 10° SSE 16:59:03 76° WSW 17:04:35 10° NNW
Cosmos 1420 Rocket 4.0 16:53:53 10° NNW 16:59:06 79° WSW 17:03:28 15° SSE
NOAA 11 4.0 16:54:41 10° SSE 17:00:07 82° ENE 17:05:37 10° NNW
Cosmos 158 Rocket 3.8 16:57:48 10° SSW 17:03:04 81° ESE 17:04:39 46° NE
CZ-4 R/B 2.2 17:00:03 10° S 17:04:03 50° W 17:07:59 10° NNW
SKYMED 2 3.6 17:03:52 35° N 17:05:41 81° WNW 17:10:02 10° SSW
NOSS 2-3 (C) 3.8 17:01:05 10° SW 17:05:42 86° NW 17:06:56 54° NE
Cosmos 1869 Rocket 4.2 17:01:27 10° N 17:04:29 42° N 17:04:29 42° N
Meteor 1-26 Rocket 4.3 17:00:43 10° S 17:06:34 59° E 17:08:48 37° NE
Cosmos 1452 Rocket 3.5 17:02:00 10° NNW 17:07:20 84° WSW 17:10:09 29° SSE
Cosmos 1939 Rocket 2.9 17:07:58 72° N 17:07:58 72° N 17:11:42 10° NNW
Geosat 3.8 17:07:11 54° NE 17:08:20 80° ESE 17:13:23 10° SSW
CSL-04 Rocket 4.0 17:04:43 10° S 17:10:00 64° WSW 17:15:17 10° NNW
ATLAS 3B R/B 2.9 17:03:31 10° NW 17:10:02 52° NNE 17:11:21 46° ENE
USA 238 DEB 3.7 17:03:50 10° NW 17:10:58 87° NE 17:14:03 39° SE
USA 238 3.7 17:03:56 10° NW 17:11:04 87° NE 17:14:08 39° SE
Cosmos 1606 4.5 17:09:13 10° S 17:10:39 22° S 17:10:39 22° S
NOSS 3-2 (A) 3.9 17:07:11 10° NW 17:14:24 84° NE 17:17:42 40° SE
Lacrosse 4 Rocket 2.4 17:10:41 10° WSW 17:14:29 38° NW 17:15:07 36° NNW
Cosmos 1844 4.2 17:11:07 10° NNW 17:16:10 43° NNE 17:16:10 43° NNE
Cosmos 2369 Rocket 4.2 17:14:01 10° NW 17:17:06 15° N 17:18:27 14° NNE
Cosmos 1933 3.7 17:15:24 10° SSW 17:19:00 61° WSW 17:19:00 61° WSW
GEOS 3 Rocket 3.4 17:25:08 78° E 17:25:22 81° SE 17:30:39 10° SW
Cosmos 1980 Rocket 2.3 17:21:43 10° SW 17:27:25 73° NW 17:29:08 46° NNE
SL-16 R/B 3.4 17:22:25 10° S 17:25:11 28° S 17:25:11 28° S
Cosmos 1943 Rocket 4.2 17:25:50 10° NNW 17:29:02 15° N 17:29:44 15° N
Ariane Rocket 3.0 17:29:42 65° S 17:30:26 81° WSW 17:35:34 10° NNW
Cosmos 2322 Rocket 3.9 17:29:00 10° S 17:30:44 20° S 17:30:44 20° S
Cosmos 44 3.9 17:35:21 10° NW 17:38:31 46° WNW 17:38:31 46° WNW
Cosmos 2263 Rocket 3.5 17:39:42 10° NW 17:44:46 37° WSW 17:49:12 13° S
USA 215 3.1 17:48:56 69° SSE 17:49:41 78° SSW 17:56:15 10° WNW
COSMO-SKYMED 1 4.2 17:52:24 28° NNW 17:53:32 32° WNW 17:57:24 10° SW
Cosmos 2228 Rocket 4.4 17:49:22 10° SW 17:52:40 39° WSW 17:52:40 39° WSW
Cosmos 2279 Rocket 4.3 17:53:07 10° NNW 17:59:15 62° W 18:02:41 27° SSW
NOSS 3-2 (C) 3.9 17:53:36 10° NW 18:00:52 84° SW 18:01:45 73° SSE
Cosmos 1697 Rocket 4.1 18:00:17 10° WSW 18:05:22 33° NW 18:06:50 29° N
H-2A R/B 3.7 18:14:20 27° NNW 18:14:20 27° NNW 18:16:38 10° NNW
USA 229 DEB 4.4 18:07:00 10° W 18:13:29 44° NNW 18:14:11 43° N
USA 229 4.4 18:07:06 10° W 18:13:34 44° NNW 18:14:15 43° N
NOSS 3-1 (C) 4.4 18:10:09 10° W 18:16:03 43° NNW 18:16:21 43° N
NOSS 3-1 (A) 4.2 18:12:22 10° W 18:18:15 47° NNW 18:18:27 47° NNW
Cosmos 1844 Rocket 3.9 18:21:29 10° NW 18:24:56 38° NW 18:24:56 38° NW
Cosmos 2278 Rocket 4.0 18:29:38 10° NNW 18:31:52 23° NNW 18:31:52 23° NNW
Cosmos 2344 4.4 18:28:49 10° WNW 18:36:43 50° N 18:37:32 49° NNE
CENTAUR R/B 3.2 18:30:37 10° NW 18:37:54 72° WSW 18:37:54 72° WSW
ATLAS 3B R/B 3.7 18:54:23 10° NW 18:58:36 41° WNW 18:58:36 41° WNW
Cosmos 1980 Rocket 4.3 19:07:47 10° W 19:10:55 22° NW 19:10:55 22° NW
